Weather reports worldwide

Advertisment
Hoyerswerda, Germany (10495): temperature & dewpoint: 07.07.2020 08:00:00 - 13.07.2020 08:00:00 (CEST)Hoyerswerda, Germany (10495): temperature 5cm & temperature -5cm: 07.07.2020 08:00:00 - 13.07.2020 08:00:00 (CEST)Hoyerswerda, Germany (10495): temperature -20cm & temperature -100cm: 07.07.2020 08:00:00 - 13.07.2020 08:00:00 (CEST)Hoyerswerda, Germany (10495): wind speed & gusts: 07.07.2020 08:00:00 - 13.07.2020 08:00:00 (CEST)Hoyerswerda, Germany (10495): wind direction: 07.07.2020 08:00:00 - 13.07.2020 08:00:00 (CEST)Hoyerswerda, Germany (10495): reduced air pressure: 07.07.2020 08:00:00 - 13.07.2020 08:00:00 (CEST)Hoyerswerda, Germany (10495): visibility: 07.07.2020 08:00:00 - 13.07.2020 08:00:00 (CEST)Hoyerswerda, Germany (10495): sunshine duration: 07.07.2020 08:00:00 - 13.07.2020 08:00:00 (CEST)Hoyerswerda, Germany (10495): precipitation: 07.07.2020 08:00:00 - 13.07.2020 08:00:00 (CEST)
Date & Time tt [°C] td [°C] tt 5cm [°C] tt -5cm [°C] tt -20cm [°C] tt -100cm [°C] ff [km/h] ff [kn] fx [km/h] fx [kn] dd ppp [hPa] vv [km] sd [min] rr [mm]
13.07.2020 08:00:00 - - - - - - - - - - - - - - -
13.07.2020 07:00:00 9,9 7,3 12,5 12,7 17,9 18,6 1 1 2 1 NNE 1026,4 75 34 0,0
13.07.2020 06:00:00 6,7 6,0 5,8 12,1 18,4 18,6 0 0 3 1 N 1026,5 40 21 0,0
13.07.2020 05:00:00 5,7 5,4 1,9 12,5 18,9 18,6 2 1 3 1 S 1026,6 37 0 0,0
13.07.2020 04:00:00 6,1 5,7 2,3 13,2 19,4 18,6 0 0 5 3 N 1026,9 44 0 0,0
13.07.2020 03:00:00 6,9 6,3 3,5 14,0 20,0 18,6 3 2 6 3 S 1026,9 67 0 0,0
13.07.2020 02:00:00 7,3 5,8 3,4 14,9 20,5 18,6 2 1 3 2 SSW 1026,8 74 0 0,0
13.07.2020 01:00:00 7,7 5,1 3,7 15,9 21,1 18,6 3 1 3 2 WNW 1026,8 75 0 0,0
13.07.2020 00:00:00 9,6 5,8 5,2 17,2 21,8 18,6 0 0 6 3 N 1026,6 75 0 0,0
12.07.2020 23:00:00 10,8 5,7 6,2 18,7 22,3 18,6 5 3 10 6 NNW 1026,6 75 0 0,0
12.07.2020 22:00:00 13,4 5,9 8,7 20,8 22,8 18,6 1 1 8 4 W 1026,3 75 12 0,0
12.07.2020 21:00:00 18,7 4,9 15,3 23,2 23,0 18,6 5 3 23 12 N 1025,6 75 58 0,0
12.07.2020 20:00:00 20,0 5,1 19,8 25,2 23,1 18,6 16 9 24 13 NNW 1025,5 75 39 0,0
12.07.2020 19:00:00 20,8 5,3 22,8 27,1 22,9 18,6 18 10 34 18 NNW 1025,4 65 52 0,0
12.07.2020 18:00:00 21,1 5,1 24,6 27,6 22,6 18,6 16 9 33 18 NNW 1025,4 69 52 0,0
12.07.2020 17:00:00 21,0 4,7 23,2 27,1 22,4 18,6 15 8 32 18 NNW 1025,7 74 35 0,0
12.07.2020 16:00:00 20,9 4,7 26,7 26,6 22,1 18,7 18 10 30 16 NW 1026,0 72 7 0,0
12.07.2020 15:00:00 19,8 4,7 22,2 28,3 21,6 18,7 18 10 27 15 NW 1026,1 75 18 0,0
12.07.2020 14:00:00 19,9 4,6 24,9 28,0 20,9 18,7 16 9 28 15 NNW 1026,2 72 27 0,0
12.07.2020 13:00:00 20,3 6,0 29,0 27,6 20,0 18,7 10 5 27 14 NW 1026,3 75 36 0,0
12.07.2020 12:00:00 19,0 6,7 28,1 26,2 19,2 18,7 18 10 29 15 W 1026,6 75 32 0,0
12.07.2020 11:00:00 18,6 8,1 25,8 24,8 18,4 18,7 11 6 23 13 WNW 1026,6 64 45 0,0
12.07.2020 10:00:00 17,5 7,9 25,2 21,6 17,8 18,7 13 7 22 12 NW 1026,6 74 60 0,0
12.07.2020 09:00:00 15,2 8,6 22,8 17,3 17,6 18,7 7 4 15 8 WNW 1026,8 75 26 0,0
12.07.2020 08:00:00 13,3 8,6 16,0 15,0 17,7 18,6 9 5 14 8 W 1026,5 70 22 0,0
12.07.2020 07:00:00 11,5 7,3 14,7 13,3 18,0 18,6 8 4 12 7 W 1026,2 75 60 0,0
12.07.2020 06:00:00 7,7 6,6 5,6 12,1 18,5 18,6 5 3 8 4 WSW 1026,0 60 24 0,0
12.07.2020 05:00:00 6,7 6,2 2,5 12,6 19,0 18,6 2 1 4 2 WSW 1025,8 71 0 0,0
12.07.2020 04:00:00 6,7 6,2 3,9 13,2 19,5 18,6 2 1 5 3 W 1025,6 51 0 0,0
12.07.2020 03:00:00 7,2 6,4 3,1 13,9 20,1 18,6 3 2 4 2 SW 1025,2 49 0 0,0
12.07.2020 02:00:00 7,7 6,6 4,0 14,9 20,7 18,6 2 1 3 2 WNW 1025,1 59 0 0,0
12.07.2020 01:00:00 9,3 7,0 5,8 15,9 21,4 18,6 2 1 6 3 SE 1025,0 66 0 0,0
12.07.2020 00:00:00 9,7 6,7 5,4 17,2 22,0 18,6 4 2 6 3 WNW 1024,8 67 0 0,0
11.07.2020 23:00:00 11,4 7,0 7,3 18,8 22,6 18,6 4 2 7 4 W 1024,3 64 0 0,0
11.07.2020 22:00:00 13,2 6,9 8,5 20,9 23,1 18,6 2 1 7 4 WNW 1023,9 41 9 0,0
11.07.2020 21:00:00 17,7 6,4 15,2 23,3 23,5 18,6 7 4 17 9 NNW 1023,2 75 60 0,0
11.07.2020 20:00:00 19,8 6,4 19,9 25,3 23,6 18,7 11 6 27 15 NW 1022,8 75 42 0,0
11.07.2020 19:00:00 20,4 5,5 22,7 26,9 23,6 18,7 16 9 28 15 WNW 1022,5 75 30 0,0
11.07.2020 18:00:00 20,2 4,5 21,7 29,0 23,3 18,7 7 4 24 13 NNW 1022,2 63 28 0,0
11.07.2020 17:00:00 20,4 5,1 24,0 29,3 22,9 18,7 13 7 26 14 NW 1022,3 75 21 0,0
11.07.2020 16:00:00 20,0 5,2 25,0 31,1 22,1 18,7 20 11 30 16 WNW 1022,1 75 40 0,0
11.07.2020 15:00:00 20,1 5,4 29,6 31,1 21,1 18,7 14 7 28 15 NW 1022,2 59 57 0,0
11.07.2020 14:00:00 18,5 5,7 22,3 27,9 20,3 18,7 17 9 29 16 NW 1022,1 73 26 0,0
11.07.2020 13:00:00 18,8 6,1 27,1 26,7 19,4 18,7 12 6 26 14 NNW 1021,9 63 34 0,0
11.07.2020 12:00:00 17,2 6,7 22,9 23,5 18,9 18,7 10 5 23 13 NNW 1022,1 65 37 0,0
11.07.2020 11:00:00 15,8 6,6 20,2 20,8 18,5 18,7 11 6 21 11 WNW 1022,0 74 23 0,0
11.07.2020 10:00:00 14,8 8,6 17,2 19,0 18,4 18,7 8 4 15 8 N 1021,7 68 36 0,0
11.07.2020 09:00:00 13,7 9,0 14,8 16,5 18,4 18,7 10 6 16 9 NW 1021,5 75 0 0,0
11.07.2020 08:00:00 13,4 10,3 14,0 15,6 18,6 18,7 10 5 17 9 W 1021,3 75 0 0,0
11.07.2020 07:00:00 12,8 10,4 12,8 15,2 18,9 18,7 9 5 15 8 WNW 1020,6 70 0 0,0
11.07.2020 06:00:00 11,2 10,1 10,4 14,7 19,3 18,7 6 3 9 5 WNW 1020,1 75 0 0,0
11.07.2020 05:00:00 10,6 9,5 8,3 15,2 19,6 18,6 7 4 11 6 WNW 1019,6 75 0 0,0
11.07.2020 04:00:00 12,5 9,8 10,6 16,3 20,0 18,6 8 4 16 8 NW 1018,9 75 0 0,0
11.07.2020 03:00:00 14,2 10,5 13,4 16,9 20,3 18,6 10 6 16 9 WNW 1019,1 74 0 0,0
11.07.2020 02:00:00 14,4 10,6 13,6 17,3 20,7 18,6 8 4 19 11 WNW 1019,0 75 0 0,0
11.07.2020 01:00:00 15,0 10,6 14,4 17,9 21,1 18,6 16 8 25 14 WNW 1017,8 75 0 0,0
11.07.2020 00:00:00 15,6 10,6 15,0 18,7 21,6 18,6 16 8 37 20 WNW 1017,1 75 0 0,0
10.07.2020 23:00:00 16,9 10,6 16,4 19,7 22,0 18,6 22 12 37 20 NW 1015,7 71 0 0,0
10.07.2020 22:00:00 17,6 12,3 17,3 20,8 22,3 18,6 27 14 41 22 WNW 1014,3 74 0 0,0
10.07.2020 21:00:00 19,6 12,2 19,1 22,2 22,6 18,7 28 15 56 30 WNW 1012,5 74 0 0,0
10.07.2020 20:00:00 23,2 11,9 22,8 23,9 22,7 18,7 27 14 55 30 W 1010,9 75 8 0,0
10.07.2020 19:00:00 24,7 11,7 24,8 25,0 22,7 18,7 28 15 49 27 W 1009,5 74 16 0,0
10.07.2020 18:00:00 24,9 13,1 24,9 24,8 22,8 18,7 29 15 47 26 W 1009,0 72 0 0,0
10.07.2020 17:00:00 26,3 13,0 26,6 26,0 22,7 18,7 34 18 52 28 W 1008,2 75 0 0,0
10.07.2020 16:00:00 28,6 12,5 29,9 25,9 22,7 18,7 24 13 54 29 WSW 1007,2 74 0 0,0
10.07.2020 15:00:00 28,7 14,4 28,6 25,3 22,8 18,7 24 13 45 24 WSW 1006,4 75 0 0,0
10.07.2020 14:00:00 27,5 16,2 27,5 27,3 22,5 18,7 20 11 41 22 SW 1006,2 75 1 1,6
10.07.2020 13:00:00 29,5 13,6 30,6 31,4 21,6 18,7 23 13 48 26 SSW 1005,6 75 30 0,0
10.07.2020 12:00:00 29,4 14,1 32,9 31,0 20,5 18,8 27 14 49 26 SW 1006,3 75 46 0,0
10.07.2020 11:00:00 27,5 14,6 30,4 27,1 19,6 18,8 19 11 34 19 SSW 1007,1 69 44 0,0
10.07.2020 10:00:00 25,4 16,0 29,2 24,4 19,1 18,8 15 8 24 13 S 1007,9 48 39 0,0
10.07.2020 09:00:00 22,3 15,5 23,5 20,9 18,8 18,8 12 6 19 10 SE 1008,7 75 5 0,0
10.07.2020 08:00:00 20,3 15,5 20,8 18,9 18,7 18,8 9 5 18 10 SSE 1009,5 68 11 0,0
10.07.2020 07:00:00 18,3 15,3 18,2 17,8 18,8 18,8 10 5 16 9 S 1010,0 61 17 0,0
10.07.2020 06:00:00 17,5 15,3 16,9 17,0 18,9 18,8 7 4 14 8 SSE 1010,6 75 0 0,0
10.07.2020 05:00:00 17,0 15,5 16,0 16,9 19,1 18,8 5 3 11 6 SSE 1011,2 60 0 0,0
10.07.2020 04:00:00 16,9 15,8 15,8 17,0 19,3 18,8 7 4 12 7 SSE 1011,7 60 0 0,0
10.07.2020 03:00:00 16,1 15,5 13,4 17,3 19,6 18,9 3 2 9 5 S 1012,3 40 0 0,0
10.07.2020 02:00:00 17,9 16,1 16,5 17,8 19,8 18,9 8 4 11 6 S 1012,4 62 0 0,0
10.07.2020 01:00:00 17,5 15,4 15,1 18,6 20,0 18,9 5 3 12 7 WSW 1012,2 75 0 0,0
10.07.2020 00:00:00 19,8 15,8 18,4 19,3 20,3 18,9 9 5 32 17 WNW 1012,2 75 0 0,0
09.07.2020 23:00:00 18,5 16,5 16,4 19,9 20,4 19,0 6 3 12 6 NW 1011,7 48 0 0,0
09.07.2020 22:00:00 21,1 16,7 19,8 20,8 20,5 19,0 6 4 16 8 SSW 1011,1 63 0 0,0
09.07.2020 21:00:00 21,8 16,5 20,4 21,8 20,5 19,0 4 2 8 5 SSE 1011,0 71 1 0,0
09.07.2020 20:00:00 22,5 15,9 22,5 22,7 20,4 19,0 6 3 20 11 SSW 1011,1 73 28 0,0
09.07.2020 19:00:00 22,4 15,8 22,9 22,5 20,3 19,1 10 6 25 14 WSW 1011,6 75 2 0,0
09.07.2020 18:00:00 21,4 16,4 22,6 22,4 20,1 19,1 10 6 26 14 SW 1011,9 67 1 0,1
09.07.2020 17:00:00 21,6 15,8 22,1 23,8 19,8 19,1 16 9 25 13 SW 1012,7 54 0 0,0
09.07.2020 16:00:00 20,9 14,9 23,0 23,6 19,5 19,1 13 7 25 13 SSW 1013,1 59 6 0,0
09.07.2020 15:00:00 19,8 14,8 21,1 22,2 19,2 19,2 13 7 29 16 SSW 1013,8 54 0 0,0
09.07.2020 14:00:00 20,0 14,3 21,8 22,7 18,8 19,2 15 8 30 16 S 1013,9 41 0 0,0
09.07.2020 13:00:00 19,3 13,7 20,5 22,0 18,3 19,2 11 6 23 12 S 1014,6 51 0 0,0
09.07.2020 12:00:00 19,0 12,9 20,8 22,1 17,8 19,2 14 7 22 12 S 1015,1 71 7 0,0
09.07.2020 11:00:00 18,4 13,2 20,3 20,2 17,3 19,3 11 6 21 11 S 1015,4 70 2 0,0
09.07.2020 10:00:00 17,7 13,8 20,4 18,5 17,0 19,3 8 5 19 10 SSW 1016,3 75 2 0,0
09.07.2020 09:00:00 15,5 13,0 15,6 16,4 16,8 19,3 7 4 14 8 S 1016,6 57 0 0,0
09.07.2020 08:00:00 14,3 12,5 14,1 15,2 16,7 19,3 5 3 13 7 S 1016,8 59 0 0,0
09.07.2020 07:00:00 13,0 12,0 12,8 14,0 16,7 19,3 8 4 11 6 S 1017,1 51 9 0,0
09.07.2020 06:00:00 12,1 11,5 12,4 12,9 16,8 19,4 6 4 11 6 SSE 1017,3 37 16 0,0
09.07.2020 05:00:00 10,9 10,7 9,8 12,5 17,0 19,4 3 2 9 5 SE 1017,2 14 0 0,0
09.07.2020 04:00:00 10,8 10,7 9,7 12,5 17,3 19,4 4 2 10 5 S 1017,2 17 0 0,0
09.07.2020 03:00:00 10,1 10,1 8,8 12,2 17,6 19,4 3 1 6 3 ESE 1017,4 2,8 0 0,0
09.07.2020 02:00:00 10,6 10,5 8,6 12,7 18,0 19,4 3 2 11 6 S 1017,4 6 0 0,0
09.07.2020 01:00:00 11,8 11,6 10,9 13,1 18,4 19,4 8 5 14 7 S 1017,4 11 0 0,0
09.07.2020 00:00:00 11,6 11,6 7,4 13,6 18,8 19,5 4 2 9 5 S 1017,9 6 0 0,0
08.07.2020 23:00:00 12,7 12,4 11,6 14,4 19,2 19,5 7 4 10 5 S 1017,3 13 0 0,0
08.07.2020 22:00:00 12,4 12,0 8,9 15,7 19,5 19,5 3 1 8 5 S 1017,2 4,8 0 0,0
08.07.2020 21:00:00 14,3 13,0 12,7 17,3 19,7 19,5 6 4 13 7 WSW 1016,7 39 8 0,0
08.07.2020 20:00:00 15,0 13,1 15,0 18,3 19,9 19,5 8 4 11 6 WSW 1016,5 51 0 0,0
08.07.2020 19:00:00 14,9 12,9 15,3 18,5 20,0 19,5 4 2 12 7 WNW 1016,4 49 0 1,3
08.07.2020 18:00:00 14,6 13,1 14,8 19,3 20,1 19,6 8 5 20 11 WNW 1016,2 9 0 0,1
08.07.2020 17:00:00 16,3 10,8 17,8 20,6 19,9 19,6 9 5 14 7 W 1015,9 75 0 0,0
08.07.2020 16:00:00 16,7 10,8 19,6 20,7 19,8 19,6 5 3 14 8 W 1015,7 68 0 0,0
08.07.2020 15:00:00 15,6 10,3 17,3 18,9 19,7 19,6 7 4 13 7 NW 1015,9 72 0 0,0
08.07.2020 14:00:00 15,8 10,7 17,1 19,9 19,6 19,6 7 4 15 8 WSW 1015,9 75 0 0,0
08.07.2020 13:00:00 15,4 10,5 17,7 19,0 19,5 19,6 8 4 15 8 SW 1015,9 75 0 0,0
08.07.2020 12:00:00 14,2 11,1 15,2 18,1 19,5 19,6 9 5 16 9 WSW 1016,0 67 0 0,1
08.07.2020 11:00:00 13,6 11,8 14,3 17,5 19,6 19,6 8 5 16 9 SW 1016,2 50 0 0,1
08.07.2020 10:00:00 13,2 11,1 13,7 17,0 19,7 19,6 10 5 18 10 SW 1016,2 50 0 0,0
08.07.2020 09:00:00 13,2 11,2 13,3 16,8 19,9 19,6 9 5 16 9 WSW 1016,3 52 0 0,0
08.07.2020 08:00:00 12,9 11,4 12,7 16,5 20,2 19,6 9 5 16 9 SW 1016,2 51 0 0,0
08.07.2020 07:00:00 12,7 11,5 12,5 16,6 20,5 19,6 8 4 16 8 SW 1016,1 54 0 0,0
08.07.2020 06:00:00 12,3 11,3 12,0 16,6 20,8 19,6 8 5 14 7 WSW 1016,5 38 0 0,1
08.07.2020 05:00:00 12,3 11,2 11,8 17,1 21,2 19,6 9 5 14 8 SW 1016,6 38 0 0,0
08.07.2020 04:00:00 12,4 11,3 12,0 17,7 21,6 19,6 8 4 14 8 WSW 1016,6 51 0 0,2
08.07.2020 03:00:00 12,7 11,3 12,2 18,4 22,0 19,6 10 5 19 10 WSW 1017,2 30 0 0,6
08.07.2020 02:00:00 14,2 10,1 12,6 19,3 22,4 19,6 15 8 34 18 WNW 1017,0 39 0 0,0
08.07.2020 01:00:00 16,8 6,2 16,0 20,0 22,7 19,6 19 10 31 17 WNW 1016,1 75 0 0,0
08.07.2020 00:00:00 16,3 6,1 15,4 20,5 23,1 19,6 6 4 11 6 SSW 1015,8 62 0 0,0
07.07.2020 23:00:00 16,9 5,5 15,6 21,2 23,5 19,6 7 4 12 6 SW 1016,0 75 0 0,0
07.07.2020 22:00:00 17,2 5,5 14,8 22,2 23,8 19,6 8 4 12 7 SW 1015,9 75 0 0,0
07.07.2020 21:00:00 18,6 4,8 17,0 23,8 24,1 19,7 8 5 19 10 SW 1016,0 74 1 0,0
07.07.2020 20:00:00 19,7 4,3 19,6 25,3 24,2 19,7 17 9 29 16 W 1016,1 68 21 0,0
07.07.2020 19:00:00 20,7 4,0 22,7 26,5 24,2 19,7 18 10 30 16 W 1016,6 69 37 0,0
07.07.2020 18:00:00 20,4 4,5 22,8 27,1 24,1 19,7 14 8 27 14 W 1016,9 66 10 0,0
07.07.2020 17:00:00 19,9 4,6 22,5 28,7 23,8 19,7 19 10 34 18 W 1017,4 75 25 0,0
07.07.2020 16:00:00 20,7 4,7 27,9 29,5 23,3 19,7 17 9 43 23 WSW 1017,8 75 39 0,0
07.07.2020 15:00:00 20,1 4,5 25,2 29,0 22,6 19,7 20 11 40 21 NW 1018,1 75 35 0,0
07.07.2020 14:00:00 19,3 3,8 29,4 27,7 22,0 19,7 22 12 38 20 W 1018,5 75 39 0,0
07.07.2020 13:00:00 18,3 4,4 24,2 26,5 21,5 19,7 19 10 41 22 WSW 1018,7 70 44 0,0
07.07.2020 12:00:00 17,0 5,5 21,5 24,8 21,0 19,7 19 10 33 18 WNW 1019,1 75 32 0,0
07.07.2020 11:00:00 16,1 6,7 19,2 22,5 20,8 19,7 19 10 29 15 W 1019,5 75 25 0,0
07.07.2020 10:00:00 15,3 7,8 21,5 20,3 20,6 19,7 16 8 31 17 W 1019,4 51 15 0,0
07.07.2020 09:00:00 14,5 9,0 18,4 19,0 20,7 19,7 19 11 28 15 W 1019,5 67 7 0,0
07.07.2020 08:00:00 13,6 8,9 15,2 17,9 20,8 19,6 18 10 25 14 WNW 1019,5 72 0 0,0

tt = temperature
td = dewpoint
tt 5cm = temperature 5cm
tt -5cm = temperature -5cm
tt -20cm = temperature -20cm
tt -100cm = temperature -100cm
ff = wind speed
fx = gusts
dd = wind direction
ppp = reduced air pressure
vv = visibility
sd = sunshine duration
rr = precipitation

Next stations